Regional Weather Roundup
Issued by NWS Wakefield, VA

Home | Current Version | Previous Version | Graphics & Text | Print | Product List | Glossary On
Versions: 1 2 3 4 5 6 7 8 9 10 11 12 13 14 15 16 17 18 19 20 21 22 23 24 25 26 27 28 29 30 31 32
000
ASUS41 KAKQ 291015
RWRAKQ

REGIONAL WEATHER ROUNDUP
NATIONAL WEATHER SERVICE WAKEFIELD VA
600 AM EDT WED JUL 29 2015

Note: "fair" indicates few or no clouds below 12,000 feet with no
significant weather and/or obstructions to visibility. * = Denotes
station may not report precipitation (e.g., rain,snow,etc.),
thunder or fog.

VAZ042-051-052>054-056-291100-
NORTHERN VIRGINIA

CITY           SKY/WX    TMP DP  RH WIND       PRES   REMARKS
WASH NATIONAL  MOCLDY    78  73  84 CALM      30.00R
DULLES         CLOUDY    71  71 100 CALM      30.00S FOG
FORT BELVOIR   FOG       72  72 100 CALM      30.00R VSB 1/2
QUANTICO       PTCLDY    73  70  90 NW7       30.00R
FREDERICKSBRG* PTCLDY    10  10 100 CALM      29.99R
STAFFORD*      FOG       70  69  97 CALM      30.04R VSB 1/2
WARRENTON      FOG       73  73 100 CALM      30.00F VSB 3/4
CULPEPER*      FOG       71  71 100 CALM      30.01S VSB 1/2
MANASSAS*      CLOUDY    73  73 100 CALM      30.00S
LEESBURG*      CLOUDY    72  72 100 CALM      30.01S FOG
WINCHESTER       N/A     68  68 100 CALM      30.00F FOG
FRONT ROYAL*   CLOUDY    68  68 100 CALM      30.00S VSB 1/4
LURAY*         FOG       70  70 100 CALM      30.02S VSB 1/4
$$

VAZ048-049-060>072-079>083-291100-
CENTRAL AND SOUTH CENTRAL VIRGINIA

CITY           SKY/WX    TMP DP  RH WIND       PRES   REMARKS
RICHMOND       MOCLDY    74  71  91 CALM      30.00R
CHESTERFIELD*  CLOUDY    73  63  68 CALM      30.01R
PETERSBURG*    CLOUDY    74  74 100 CALM      30.00S
HANOVER        CLOUDY    72  71  97 CALM      30.01R FOG
TAPPAHANNOCK*  PTCLDY    73  70  91 CALM      30.01R
QUINTON*       FAIR      70  69  98 E3        29.99S
CHARLOTTSVILLE FOG       72  71  97 CALM      30.01S VSB 1/2
GORDONSVILLE*  CLOUDY    72  72 100 CALM      30.00S FOG
ORANGE*        DRIZZLE   73  72  94 CALM      30.01F
LOUISA*        CLOUDY    73  73 100 CALM      30.00R
BUMPASS*       CLOUDY    73  72  99 SW3       30.00R
FARMVILLE*     CLOUDY    73  73 100 CALM      29.99S FOG
CREWE*         CLOUDY   N/A N/A N/A CALM      30.00S
FORT PICKETT*  CLOUDY    73  72  98 S10       30.01R
CHASE CITY*    CLOUDY    75  75 100 CALM      30.01R
CLARKSVILLE*   CLOUDY    73  72  94 CALM      30.00R
SOUTH HILL*    CLOUDY    72  71  98 SW3       30.07R
LAWRENCEVILLE* PTSUNNY   72  72 100 CALM      30.01R
EMPORIA*       CLOUDY    72  70  94 CALM      30.02R
$$

VAZ088>098-291100-
SOUTHEAST VIRGINIA

CITY           SKY/WX    TMP DP  RH WIND       PRES   REMARKS
NORFOLK        CLEAR     75  70  84 SW7       30.00R
VIRGINIA BEACH PTCLDY    75  70  84 SW5       29.99R
NORFOLK NAVAL  PTCLDY    74  71  91 S5        30.01R
WEST POINT*    PTCLDY    78  72  82 CALM      30.01R
SALUDA*        PTSUNNY   74  72  95 CALM      30.00R
NEWPORT NEWS   CLEAR     75  71  87 SW5       30.00R
LANGLEY AFB    CLEAR     76  72  87 SW6       30.00R
FORT EUSTIS    CLEAR     76  76 100 S3        29.98R
WILLIAMSBURG*  CLEAR     79  73  83 CALM      30.01R
HR EXEC AP*    FAIR      66  64  94 CALM      30.02R
FRANKLIN*      CLOUDY    71  70  98 CALM      30.01R
WAKEFIELD      CLOUDY    72  70  93 CALM      30.00R
$$

VAZ020-022-025-037-045-291100-
WEST CENTRAL AND SOUTHWEST VIRGINIA

CITY           SKY/WX    TMP DP  RH WIND       PRES   REMARKS
STAUNTON*      CLOUDY    73  72  95 CALM      30.05S FOG
WAYNESBORO*    CLOUDY    70  70 100 NW3       30.04S
HOT SPRINGS VA MOCLDY    67  67 100 W3        30.13S FOG
LYNCHBURG      CLOUDY    72  72 100 CALM      30.02F
DANVILLE       CLOUDY    73  72  96 E5        30.00S FOG
SOUTH BOSTON*  CLOUDY    72  70  95 CALM      30.00R
MARTINSVILLE   FOG       72  72 100 CALM      30.03S VSB 1/2
ROANOKE        CLOUDY    74  72  93 NE5       30.03F
BLACKSBURG     CLOUDY    70  70 100 CALM      30.09S
DUBLIN*        FOG       70  70 100 CALM      30.08R VSB 1/2
MARION*        MOCLDY    66  65  95 CALM      30.10S FOG
HILLSVILLE*    FOG       65  65 100 CALM      30.08R VSB 1/4
RICHLANDS*     FOG       68  68 100 CALM      30.08F VSB 1
WISE*          CLOUDY    72  72 100 CALM      30.10R FOG
ABINGDON*      CLEAR     70  69  96 CALM      30.06R FOG
$$

MDZ021>025-VAZ099-100-291100-
SOUTHERN MARYLAND AND THE DELMARVA PENINSULA

CITY           SKY/WX    TMP DP  RH WIND       PRES   REMARKS
PATUXENT RIVER PTCLDY    75  73  93 SW6       29.98R
BAY BRIDGE APT   N/A     73  73 100 CALM      29.99R
LEONARDTOWN    CLEAR     73  70  88 CALM      30.01R
DOVER          CLEAR     71  71  99 S1        29.97R
GEORGETOWN     CLEAR     71  70  96 CALM      30.00R
EASTON         CLEAR     74  74 100 CALM      30.02R
CAMBRIDGE      MOCLDY    72  70  94 CALM      29.98S
SALISBURY      CLEAR     69  69 100 CALM      29.99R
OCEAN CITY     CLEAR     70  68  93 CALM      29.99R
WALLOPS ISLAND CLEAR     74  74 100 SW5       30.00R
ACCOMACK*      CLEAR     73  64  73 SW5       30.00R
$$

NCZ012>017-030>032-291100-
NORTH CENTRAL AND EASTERN NORTH CAROLINA

CITY           SKY/WX    TMP DP  RH WIND       PRES   REMARKS
ROANOKE RAPIDS FAIR      68  68 100 CALM      30.00S
RALEIGH        MOCLDY    76  69  79 SE5       30.01R
ELIZABETH CITY CLEAR     71  70  96 NW3       30.00R
AHOSKIE*       CLEAR     68  67  96 CALM      30.01R
EDENTON*       CLEAR     71  69  91 CALM      30.00R
CURRITUCK*     CLEAR     73  69  88 CALM      30.01R
KILL DEVIL HLS CLEAR     74  69  85 CALM      29.99R
MANTEO         CLEAR     72  70  93 CALM      30.00R
CAPE HATTERAS  CLEAR     79  68  69 SE9       29.99R
TARBORO*         N/A     72  71  95 CALM      30.01S
GOLDSBORO      PTCLDY    72  71  95 CALM      29.98R
WASHINGTON     CLEAR     71  69  95 CALM      30.00R
GREENVILLE     CLEAR     72  70  94 CALM      30.02R
NEW BERN       CLEAR     73  70  90 CALM      30.00R
WILMINGTON     CLEAR     71  69  93 CALM      29.97R
$$

VAZ048-291100-
ELSEWHERE

CITY           SKY/WX    TMP DP  RH WIND       PRES   REMARKS
HARRISBURG PA  MOCLDY    71  67  87 N5        29.98F
BALTIMORE      PTCLDY    71  70  96 CALM      29.99R FOG
ANNAPOLIS      CLEAR     75  72  90 CALM      29.98R
ANDREWS AFB    CLEAR     71  71  99 S5        29.99R FOG
PHILADELPHIA   PTCLDY    77  71  82 CALM      29.98R
HENDERSON NC   CLOUDY    73  68  83 S5        30.01S
GREENSBORO     PTCLDY    73  72  96 S3        30.00R
ROCKY MOUNT    PTCLDY    71  70  96 CALM      30.00S
$$

VAZ100-291100-
MARINE

STATION/POSITION TIME  TEMP    WIND        PRES    WAVE   SWELL
                       AIR SEA DIR/SP/G            HT/PER HT/PER
                 (UTC) (F)     (DEG/KT/KT) (MB)    (FT/S) (FT/S)
BRANDYWINE LGT   0900   76 76  240/  6/  7 1015.3R
CAPE MAY NJ      0900   74 78  220/  5/  6 1014.7S
LEWES DE         0900   73 71  230/  4/  5 1014.9S
15NM E FENWICK I 0950   78 78  230/ 10/ 10 1015.5R   2/ 6   2/ 6
OCEAN-CITY-INLET 0900   75 76  260/  3/  4 1014.4S
WACHAPREAGUE VA  0900   76 83  240/  3/  4 1015.3R
GOOSES REEF MD   1000   80 82  230/  8/  8 1016.4R
COVE POINT MD    0900   77     220/  4/  5 1015.6F
SOLOMONS ISLAND  0900      82                N/A
BISHOPS HEAD MD  0900   80 83  200/  5/  6 1014.0S
POTOMAC MD       1000   80 83  240/ 10/ 12 1014.3R   1
CAMBRIDGE MD     0900   76 83  180/  2/  3 1014.1S
LEWISETTA VA     0900   77 84  230/  8/  9 1014.8R
RAPPAHANNOCK LGT 0900          220/ 13/ 14 1015.5F
STINGRAY PT      1000   79 83  230/ 10/ 14 1015.8R   1/ 3
YORK RVR RNG VA  0900   79     230/  8/ 10 1014.8R
YORKTOWN VA      0900   76 83  220/  2/  5 1015.0S
JAMESTOWN VA     1000   76 84  240/  4/  6   N/A
DOMINION TERM VA 0900   77     220/  6/  7 1015.2S
KIPTOPEKE VA     0900      81  200/  7/  9   N/A
CHES BAY BRIDGE  0900   78 81  190/  8/  9 1014.7F
CAPE HENRY VA    0900   76     200/  5/  7   N/A
CHESAPEAKE LGHT  0900   79     180/ 11/ 12 1015.8S
WILLOUBY STN VA  0900   78     230/  7/  9 1016.3R
CAPE HENRY BUOY  0928      81                N/A     3/ 6
1ST LANDING BUOY 1000      81              1015.5R   2/ 4
CAPE CHARLES BUO 0926      79                N/A     2/11   2/11
OFFSHORE WE BUOY 0911      81                N/A     3/ 6   3/ 6
64NM E OF VA BCH 0950   80 80  180/  6/  8 1015.4R   2/10   2/10
DUCK PIER NC     0900   77 71  160/  6/  6 1014.5F
44100 DUCK FRF   0924      81                N/A     2/10
44056 DUCK FRF   0911      78                N/A     2/11
OREGON INLET NC  0900   77 82  140/  3/  5 1015.2F
HATTERAS NC      0900   80 83  100/  6/  9 1014.9R
CAPE LOOKOUT NC  1000   80      80/ 13/ 15 1014.6R
$$


USA.gov is the U.S. government's official web portal to all federal, state and local government web resources and services.